This is the latest recevied weather packets stored in our database for station/object W1ERB-13. If no packets are shown the sender has not sent any weather packets the latest 10 day(s).
| Time | Temp. | Humidity | Pressure | Rain* | Wind** | Luminosity | Snow |
|---|---|---|---|---|---|---|---|
| 1777792214 | 6.67° C | 60% | 1009.9 hPa | 0 mm | - | 0 W/m² | - |
| 1777791910 | 6.67° C | 57% | 1009.9 hPa | 0 mm | - | 0 W/m² | - |
| 1777791609 | 6.67° C | 60% | 1009.9 hPa | 0 mm | - | 0 W/m² | - |
| 1777791306 | 6.67° C | 60% | 1009.7 hPa | 0 mm | - | 0 W/m² | - |
| 1777791003 | 6.67° C | 58% | 1010 hPa | 0 mm | - | 0 W/m² | - |
| 1777790701 | 6.67° C | 57% | 1009.8 hPa | 0 mm | - | 0 W/m² | - |
| 1777790397 | 6.67° C | 57% | 1009.8 hPa | 0 mm | - | 0 W/m² | - |
| 1777790095 | 6.67° C | 57% | 1009.6 hPa | 0 mm | - | 0 W/m² | - |
| 1777789793 | 6.67° C | 55% | 1009.9 hPa | 0 mm | - | 0 W/m² | - |
| 1777789492 | 6.67° C | 55% | 1010.1 hPa | 0 mm | - | 0 W/m² | - |
| 1777789190 | 6.67° C | 57% | 1010.2 hPa | 0 mm | - | 0 W/m² | - |
| 1777788886 | 6.67° C | 56% | 1010.1 hPa | 0 mm | - | 0 W/m² | - |
| 1777788582 | 6.67° C | 57% | 1010.3 hPa | 0 mm | - | 0 W/m² | - |
| 1777788277 | 6.67° C | 57% | 1010.2 hPa | 0 mm | - | 0 W/m² | - |
| 1777787973 | 6.67° C | 60% | 1010.2 hPa | 0 mm | - | 0 W/m² | - |
| 1777787673 | 6.67° C | 60% | 1010.2 hPa | 0 mm | - | 0 W/m² | - |
| 1777787369 | 6.67° C | 59% | 1010.5 hPa | 0 mm | - | 0 W/m² | - |
| 1777787065 | 6.67° C | 62% | 1010.6 hPa | 0 mm | - | 0 W/m² | - |
| 1777786763 | 6.67° C | 62% | 1010.6 hPa | 0 mm | - | 0 W/m² | - |
| 1777786461 | 6.67° C | 62% | 1010.6 hPa | 0 mm | - | 0 W/m² | - |
| 1777786157 | 6.67° C | 62% | 1010.7 hPa | 0 mm | - | 0 W/m² | - |
| 1777785854 | 7.22° C | 62% | 1010.6 hPa | 0 mm | - | 0 W/m² | - |
| 1777785550 | 7.22° C | 62% | 1010.7 hPa | 0 mm | - | 0 W/m² | - |
| 1777785247 | 7.22° C | 62% | 1010.7 hPa | 0 mm | - | 0 W/m² | - |
| 1777784944 | 7.22° C | 61% | 1010.8 hPa | 0 mm | - | 0 W/m² | - |
* Rain latest hour (hover to see other rain measurements)
** Current wind speed in m/s (hover to see current wind gust speed)